Temperature
34 33 33 33 34 34 34 34 34 35 36 35 34 34 34 33 33 32 31 30 28 27 27 26 25 24 23 22 21 21 21 21 20 20 19 19 19 19 19 19 19 19 19 18
33 33 34 35 35 35 34 34 34 35 36 35 34 34 34 34 33 32 31 30 29 28 27 26 25 24 23 22 22 21 21 21 21 20 20 20 20 19 19 19 19 19 19 19
33 34 35 35 35 34 34 34 34 34 35 35 34 33 34 34 33 33 32 31 30 29 28 26 25 25 24 23 22 22 22 21 21 21 20 20 20 20 20 19 19 19 19 19
34 35 35 35 34 34 34 35 35 35 34 33 34 32 33 34 33 33 33 32 31 30 29 27 26 25 25 24 23 22 22 22 21 21 20 20 20 20 20 20 19 19 19 19
33 35 34 34 35 35 35 36 35 35 34 33 33 33 33 33 32 33 33 32 32 31 30 28 27 26 25 24 23 23 22 22 22 21 21 20 20 20 20 20 19 19 19 19
34 35 35 35 35 36 35 35 35 34 34 32 33 33 32 33 33 33 34 33 32 31 30 29 28 27 26 25 24 23 23 22 22 22 21 21 20 20 20 20 20 19 19 19
32 34 35 35 34 35 35 33 32 31 31 31 33 32 32 34 34 34 34 33 32 31 30 29 28 27 26 25 24 24 23 23 22 22 22 21 21 20 20 20 20 19 19 19
31 32 34 35 34 34 34 33 31 30 30 31 32 31 32 34 34 34 34 33 32 31 30 29 28 27 26 25 25 24 23 23 23 22 22 21 21 21 20 20 20 20 20 19
32 32 35 35 35 34 33 33 34 33 31 31 31 31 32 33 34 34 34 33 32 31 30 29 28 27 26 25 25 24 23 23 23 22 22 22 21 21 21 20 20 20 20 20
32 31 33 35 35 34 34 34 33 32 30 30 31 31 31 31 32 33 33 32 32 31 30 29 28 27 26 25 25 24 23 23 23 22 22 21 21 21 21 21 20 20 20 20
32 31 32 33 33 33 33 33 32 32 32 31 30 30 31 31 31 32 32 32 31 31 30 29 28 27 26 25 25 24 23 23 22 22 22 21 21 21 21 21 21 20 20 20
31 31 30 32 34 34 34 33 33 31 30 31 31 30 32 31 32 31 31 31 30 30 29 29 28 27 26 25 24 24 23 23 22 22 22 21 21 21 21 21 21 20 20 20
29 29 28 29 31 33 33 33 33 33 32 31 31 30 32 31 31 31 30 30 29 29 28 28 27 26 25 25 24 24 23 23 22 22 22 21 21 21 21 21 20 20 20 20
27 28 28 28 30 31 31 32 33 32 31 31 31 30 30 30 30 30 29 29 28 28 27 27 26 25 25 24 24 23 23 22 22 22 22 21 21 21 21 21 20 20 20 20
28 27 28 29 30 31 31 32 32 32 32 31 31 30 30 30 29 29 28 27 27 27 26 26 25 24 24 24 23 23 23 22 22 22 22 21 21 21 20 20 20 20 20 19
27 26 27 27 29 30 30 31 32 32 32 31 31 30 30 30 29 28 27 27 26 26 25 25 24 23 23 23 23 22 22 22 22 22 21 21 21 20 20 20 20 20 19 19
26 25 25 26 28 29 29 30 31 31 31 31 30 29 29 28 28 27 27 26 25 24 24 23 23 23 23 22 22 22 22 21 21 21 21 21 20 20 20 19 19 19 19 19
25 24 24 25 26 25 28 31 31 30 30 30 29 29 28 27 27 26 25 25 25 24 23 23 23 22 22 22 22 21 21 21 21 21 20 20 20 19 19 19 19 19 19 19
25 24 24 24 25 26 28 29 30 29 28 29 29 28 28 27 26 25 24 24 24 23 22 22 22 22 21 21 21 21 20 20 20 20 20 19 19 19 19 19 19 18 18 18
25 24 23 24 24 25 26 28 29 28 26 27 27 27 27 26 26 25 23 23 23 22 21 21 21 21 20 20 20 20 20 20 20 20 19 19 19 19 19 18 18 18 18 18
23 23 23 23 24 25 26 27 27 25 24 25 25 25 25 24 24 23 23 22 21 21 21 20 20 20 20 19 19 19 19 19 19 19 19 19 18 18 18 18 18 18 17 17
23 23 23 23 23 23 25 25 24 23 23 23 23 23 23 22 22 22 22 21 20 20 20 20 19 19 19 19 18 18 18 18 18 18 18 18 18 17 17 17 17 17 17 17
24 23 23 23 23 22 23 22 22 22 22 22 22 22 22 21 21 21 21 20 19 19 19 18 18 18 18 18 17 17 17 17 17 17 17 17 17 17 17 17 16 16 16 16
23 23 22 21 22 22 22 22 21 21 21 21 21 21 21 21 20 20 19 19 18 18 18 18 17 17 17 16 16 16 16 16 16 16 16 16 16 16 16 16 16 16 15 15
21 21 21 21 21 21 21 21 20 20 20 20 20 20 20 20 19 19 18 18 17 17 17 17 16 16 16 16 16 16 16 16 15 15 15 15 16 16 15 15 15 15 15 15
21 20 20 20 20 20 20 20 20 19 19 19 19 19 19 18 18 18 17 17 17 16 16 16 15 15 15 15 15 15 15 15 15 15 15 15 15 15 15 15 15 15 15 15
Wind_Speed
16 15 15 15 13 12 12 10 8 3 4 4 5 7 11 13 14 15 15 15 16 15 15 15 14 14 14 12 11 9 9 8 6 5 5 5 5 4 4 4 7 7 7 6
18 20 18 15 13 13 13 11 10 5 4 5 7 7 9 11 12 14 16 15 16 16 16 15 15 14 15 13 12 11 9 9 8 6 4 3 3 3 4 3 5 7 7 7
22 18 15 15 15 16 14 12 11 9 7 8 7 8 10 12 11 12 14 15 16 17 18 17 16 15 15 14 13 12 11 10 9 8 5 4 3 3 2 4 4 5 7 7
21 20 17 16 17 16 14 13 12 11 9 9 8 8 9 11 12 13 13 14 16 16 18 18 17 15 16 15 14 11 11 10 9 8 7 7 5 5 4 4 4 5 6 6
20 19 18 18 17 16 13 13 12 12 11 12 12 10 7 11 11 12 13 14 14 15 17 19 19 16 16 16 15 13 11 10 10 9 8 7 6 5 4 4 4 4 5 5
21 19 18 18 16 15 13 14 13 13 13 14 14 12 7 6 8 9 10 11 12 14 15 16 17 15 14 14 14 14 13 11 10 10 8 8 7 5 3 3 4 4 4 5
21 21 19 17 17 16 15 13 11 12 12 12 12 11 6 6 7 7 8 9 11 12 13 13 14 15 14 14 14 14 14 12 12 11 9 8 7 6 5 5 5 5 4 4
19 19 21 20 19 17 17 17 14 13 12 10 9 9 6 5 6 6 7 8 10 11 13 14 13 12 11 13 13 13 14 13 12 11 9 8 8 7 6 7 5 5 4 4
16 17 17 18 17 18 18 18 17 16 15 13 10 6 5 5 5 6 6 7 8 9 11 13 13 13 12 11 11 11 12 12 11 11 9 8 8 7 6 6 6 5 4 4
15 15 15 14 14 18 19 16 12 13 12 14 11 8 6 6 5 5 5 5 5 8 10 11 12 12 12 12 10 10 11 10 10 10 10 9 9 8 6 5 5 5 4 4
16 15 16 15 16 18 18 19 15 11 12 13 11 4 3 4 3 4 4 5 5 4 7 9 10 11 11 11 10 10 10 10 9 9 8 7 8 8 7 6 6 5 4 4
13 14 15 17 16 17 17 18 17 13 11 12 12 5 3 4 3 4 4 6 6 5 5 8 9 9 8 9 10 9 10 10 10 9 7 7 6 7 7 7 6 6 5 5
8 10 13 16 15 16 17 18 18 16 13 14 14 7 5 5 4 4 5 6 6 6 6 6 7 7 7 7 7 8 8 9 9 8 7 6 6 6 6 6 6 5 6 5
6 10 15 17 12 11 15 18 18 17 14 14 12 8 5 4 4 4 6 6 6 6 5 5 6 5 4 4 4 5 6 6 7 7 8 7 7 6 6 6 5 6 6 6
7 13 16 19 19 17 15 17 18 18 16 14 10 8 5 3 5 5 5 5 5 5 5 6 6 4 4 3 3 3 4 4 5 6 7 8 7 6 6 6 6 6 6 7
6 10 14 17 20 20 19 18 17 17 16 14 11 7 4 3 3 4 4 5 5 6 5 5 4 4 3 2 2 2 3 3 5 6 8 7 6 6 6 6 6 6 6 5
7 7 11 15 18 19 21 18 17 14 13 11 9 4 3 2 3 3 3 5 5 5 3 3 2 1 2 2 2 2 3 3 4 5 6 6 6 6 6 7 6 6 6 5
8 8 8 13 15 20 15 12 11 11 9 6 3 4 2 1 3 3 4 5 4 3 2 2 3 2 1 1 1 0 2 3 4 4 4 5 6 6 6 6 6 6 5 5
10 8 9 11 16 18 13 11 11 10 6 2 1 2 2 1 2 3 5 5 4 4 4 3 3 3 2 1 1 2 2 2 4 4 4 4 5 6 6 7 6 5 4 5
12 9 10 12 14 14 6 4 4 5 5 2 0 1 1 1 3 1 3 3 4 5 4 3 4 3 3 2 2 2 3 3 3 4 4 4 5 6 6 6 5 4 4 4
12 13 14 15 15 10 5 4 5 6 0 5 4 3 2 2 4 4 3 3 3 4 4 3 3 3 3 3 2 3 3 3 3 3 3 3 4 5 6 5 4 5 5 5
10 11 13 13 15 8 6 4 3 4 5 5 5 5 5 4 4 4 3 3 3 4 4 4 3 3 3 3 3 3 4 3 3 3 3 3 4 5 4 4 5 5 5 6
8 6 5 5 3 4 6 6 6 6 6 5 4 4 4 4 4 5 3 3 3 4 4 4 4 4 3 3 3 4 3 3 3 3 3 3 3 4 4 5 5 4 4 4
5 4 4 3 2 2 4 4 5 6 6 7 7 6 4 4 5 5 3 3 3 3 4 4 4 4 4 4 4 4 3 2 3 4 3 3 3 3 3 3 4 4 4 4
6 5 5 5 3 3 3 4 5 5 6 7 7 6 5 5 5 5 3 2 3 3 3 4 4 4 4 4 4 4 3 3 4 4 4 4 3 2 2 2 2 3 3 4
6 5 6 5 4 3 4 5 5 5 7 7 8 7 6 5 6 6 5 3 3 4 4 4 4 5 5 4 4 4 3 3 4 4 4 4 3 3 3 2 1 2 2 3
Wind_Direction
237 238 242 242 239 246 259 267 267 247 194 211 222 203 175 173 179 174 176 179 180 182 179 173 175 172 170 168 169 173 181 174 183 188 192 191 196 200 192 190 179 188 193 193
240 237 240 247 250 253 256 262 267 252 218 237 242 237 189 177 189 179 180 182 184 181 178 174 178 179 176 173 173 176 182 178 186 191 195 199 200 210 194 192 171 182 188 196
238 241 236 240 243 248 251 256 257 258 246 238 246 247 213 185 185 184 185 185 188 186 180 177 183 185 181 177 178 185 184 181 189 187 189 202 191 219 209 184 182 189 190 198
242 244 241 241 242 246 251 253 256 258 262 267 246 248 220 193 186 187 188 189 190 188 181 178 182 189 186 181 181 178 175 178 182 189 200 199 199 205 208 193 186 188 191 202
243 241 241 242 243 248 255 259 262 263 260 263 260 259 227 189 188 193 189 193 193 187 183 179 184 188 187 182 178 175 172 177 180 190 201 208 213 214 209 189 180 192 197 206
252 248 240 241 245 248 253 256 257 259 258 251 249 254 238 200 188 188 186 191 189 185 183 181 182 178 182 179 176 173 172 177 182 190 198 203 214 221 220 196 183 196 200 205
244 245 241 239 243 239 237 244 247 248 245 247 245 251 223 185 188 189 180 184 180 176 177 176 176 176 177 178 177 173 172 179 184 190 198 201 208 212 213 214 206 210 209 202
237 235 231 230 234 241 235 239 241 251 260 262 250 242 224 213 179 167 169 167 167 175 177 176 174 170 173 178 176 173 172 178 184 189 194 197 202 210 211 215 221 208 212 208
249 247 233 223 227 237 243 242 247 254 255 262 256 241 230 191 163 152 144 147 161 171 174 172 170 170 170 173 171 171 168 175 183 188 188 193 198 206 214 206 208 217 217 203
260 272 251 224 224 232 243 252 253 253 260 261 247 232 213 167 166 148 136 130 133 160 164 166 166 169 172 174 168 164 164 173 181 186 192 195 194 200 209 209 210 213 213 210
255 263 260 242 225 232 229 238 246 256 261 262 260 237 170 123 161 157 146 124 123 130 155 156 158 162 165 166 165 167 166 171 178 188 194 195 190 196 200 203 209 213 215 202
251 255 261 256 246 233 241 238 237 241 251 264 269 253 158 120 133 143 126 99 96 99 115 138 144 143 152 161 166 169 174 180 184 186 187 193 190 193 200 205 204 202 203 204
287 258 254 252 245 235 236 243 243 243 247 253 258 235 183 149 140 129 112 105 100 96 96 110 125 138 151 159 161 168 181 185 184 182 182 187 195 199 204 204 202 200 200 206
294 264 256 254 254 252 239 240 241 242 244 249 247 225 194 146 106 85 86 91 89 94 92 101 108 110 118 135 142 157 175 183 184 184 187 187 196 204 208 208 202 199 199 202
264 259 261 266 268 269 258 249 242 240 247 254 248 223 190 144 117 100 81 75 76 81 86 86 94 100 113 121 131 148 166 172 183 184 193 192 193 201 206 205 203 202 203 205
250 272 275 269 266 267 266 259 253 248 248 247 249 243 170 130 100 112 110 102 79 66 59 64 82 103 112 130 151 159 177 183 185 188 198 193 189 193 195 198 200 200 198 201
257 264 269 265 266 265 256 258 257 255 251 250 247 223 154 140 98 84 74 89 86 77 50 32 42 80 144 147 147 175 185 188 194 199 198 189 190 193 193 197 194 197 197 197
259 267 265 264 266 257 257 261 260 259 258 250 211 139 123 102 98 87 73 79 74 61 58 39 8 360 8 49 48 286 217 193 195 206 208 191 189 195 197 200 199 203 200 198
247 243 250 255 254 253 251 252 252 254 257 269 203 175 159 181 142 96 63 45 45 40 42 27 354 337 355 341 323 301 251 222 211 209 213 204 199 204 205 205 205 204 200 202
234 224 236 249 255 254 263 291 303 267 230 11 65 209 285 322 238 84 34 16 20 27 29 9 348 344 346 341 312 285 269 254 240 231 223 211 204 208 211 207 198 196 200 205
219 219 229 243 253 256 292 312 288 252 2 26 17 18 2 355 350 348 15 32 22 12 0 353 354 343 342 332 308 278 275 266 267 272 247 227 207 208 208 197 196 193 194 192
230 225 226 238 249 253 10 4 12 27 19 19 11 7 14 19 358 339 359 32 18 4 353 347 352 347 343 333 311 288 281 286 287 276 264 250 236 233 215 198 202 197 195 191
244 255 263 260 241 76 46 53 44 24 4 352 353 350 347 338 328 333 355 13 3 355 347 342 341 343 342 335 322 299 300 304 297 283 261 252 251 239 206 193 196 190 191 201
258 275 265 268 225 16 32 22 20 13 355 346 336 333 330 322 319 322 340 352 347 343 336 332 333 332 331 332 325 314 309 299 284 278 269 251 234 227 203 192 192 189 198 206
305 301 278 259 258 294 336 341 353 347 335 332 331 329 324 320 319 320 325 333 325 314 315 317 314 309 306 311 311 309 312 310 291 280 260 241 234 213 196 199 222 204 192 203
289 285 279 285 338 326 317 327 336 334 327 326 324 324 328 324 321 322 314 314 311 308 314 306 300 300 298 297 295 295 298 289 277 268 260 250 239 222 205 184 166 52 162 169
Height
1471 1473 1474 1469 1465 1466 1466 1468 1469 1463 1458 1462 1467 1468 1469 1473 1476 1482 1488 1493 1498 1503 1507 1511 1514 1517 1520 1522 1524 1526 1527 1529 1531 1532 1534 1535 1536 1538 1539 1539 1540 1540 1541 1542
1470 1470 1464 1460 1460 1461 1463 1468 1468 1461 1457 1461 1466 1466 1464 1468 1472 1476 1482 1488 1493 1498 1503 1508 1511 1515 1517 1519 1521 1523 1525 1527 1529 1531 1532 1534 1535 1536 1537 1538 1539 1539 1540 1541
1468 1461 1457 1458 1460 1463 1463 1467 1466 1465 1459 1458 1465 1472 1466 1464 1469 1473 1477 1482 1488 1493 1498 1503 1508 1511 1514 1516 1519 1521 1523 1525 1527 1529 1531 1533 1534 1535 1536 1537 1537 1538 1539 1539
1459 1454 1454 1457 1459 1460 1466 1456 1457 1459 1467 1471 1468 1486 1470 1463 1466 1469 1473 1477 1482 1487 1493 1498 1503 1508 1511 1513 1516 1519 1520 1523 1525 1527 1529 1531 1532 1533 1534 1535 1536 1536 1537 1538
1456 1452 1453 1457 1455 1454 1457 1452 1454 1458 1465 1472 1468 1477 1472 1460 1467 1465 1468 1472 1477 1482 1487 1493 1498 1503 1507 1510 1513 1515 1518 1520 1522 1524 1526 1528 1530 1531 1532 1533 1534 1535 1535 1536
1450 1446 1447 1449 1448 1449 1450 1454 1456 1458 1464 1483 1471 1475 1475 1461 1461 1460 1463 1468 1472 1477 1483 1488 1494 1499 1503 1507 1510 1512 1514 1517 1519 1521 1523 1525 1527 1529 1530 1531 1532 1532 1533 1534
1455 1448 1444 1445 1450 1449 1452 1465 1481 1486 1485 1483 1463 1469 1468 1454 1452 1454 1459 1464 1469 1474 1479 1485 1490 1495 1499 1503 1507 1509 1511 1513 1516 1518 1520 1523 1525 1526 1528 1529 1530 1531 1532 1532
1461 1458 1443 1441 1447 1452 1452 1458 1481 1496 1493 1479 1464 1472 1461 1450 1449 1452 1456 1461 1466 1471 1476 1481 1486 1491 1495 1499 1503 1506 1508 1510 1513 1515 1517 1520 1522 1524 1525 1526 1528 1529 1530 1531
1454 1452 1435 1435 1438 1444 1452 1453 1449 1464 1472 1481 1474 1467 1457 1449 1450 1452 1455 1459 1464 1468 1472 1477 1482 1487 1492 1496 1499 1502 1505 1507 1510 1512 1515 1517 1519 1521 1522 1524 1525 1526 1528 1529
1446 1453 1437 1433 1437 1439 1443 1445 1453 1463 1480 1486 1475 1471 1468 1458 1456 1455 1456 1459 1463 1467 1471 1475 1480 1484 1489 1493 1496 1500 1502 1504 1507 1510 1512 1514 1516 1517 1519 1521 1523 1524 1525 1526
1444 1454 1446 1438 1442 1446 1445 1449 1451 1456 1459 1476 1483 1479 1453 1455 1454 1455 1457 1459 1462 1466 1470 1474 1477 1482 1487 1491 1494 1497 1500 1502 1505 1507 1509 1511 1513 1515 1516 1518 1519 1521 1522 1523
1445 1449 1453 1443 1432 1431 1436 1441 1447 1464 1466 1462 1469 1474 1449 1452 1453 1455 1457 1460 1464 1466 1470 1473 1477 1481 1486 1489 1492 1495 1498 1500 1502 1504 1506 1508 1510 1512 1513 1515 1516 1518 1519 1520
1450 1454 1464 1459 1447 1436 1437 1437 1438 1443 1453 1460 1468 1470 1449 1452 1455 1457 1459 1462 1465 1468 1470 1473 1477 1480 1484 1487 1490 1492 1495 1497 1499 1501 1503 1505 1507 1509 1510 1512 1513 1514 1515 1516
1455 1456 1461 1464 1452 1441 1441 1438 1436 1442 1453 1458 1458 1461 1454 1454 1457 1459 1461 1464 1466 1469 1471 1473 1476 1479 1482 1486 1488 1490 1492 1494 1496 1498 1500 1502 1503 1505 1507 1508 1509 1510 1511 1512
1455 1459 1454 1448 1440 1437 1438 1437 1435 1439 1443 1452 1452 1453 1454 1454 1457 1462 1464 1467 1468 1470 1472 1474 1477 1479 1482 1484 1486 1488 1490 1492 1493 1495 1496 1498 1499 1501 1503 1504 1505 1506 1507 1508
1456 1461 1458 1454 1443 1439 1439 1435 1434 1435 1437 1442 1447 1451 1450 1454 1458 1462 1465 1468 1470 1471 1474 1476 1478 1479 1481 1483 1485 1486 1487 1489 1490 1491 1493 1495 1496 1497 1498 1500 1502 1503 1504 1504
1457 1463 1467 1463 1449 1444 1449 1438 1436 1436 1434 1440 1449 1452 1452 1456 1460 1463 1465 1468 1471 1473 1476 1476 1477 1479 1480 1481 1482 1483 1485 1486 1487 1488 1490 1491 1492 1493 1494 1495 1497 1498 1499 1500
1461 1466 1467 1464 1461 1469 1445 1430 1431 1435 1436 1438 1443 1448 1453 1458 1462 1465 1467 1468 1470 1472 1475 1475 1477 1478 1479 1480 1481 1481 1482 1483 1484 1485 1486 1487 1488 1489 1491 1491 1492 1494 1495 1496
1456 1463 1468 1466 1465 1455 1441 1433 1434 1438 1442 1440 1444 1449 1453 1458 1461 1465 1467 1469 1471 1472 1474 1475 1476 1477 1477 1478 1478 1479 1479 1480 1480 1481 1482 1483 1484 1485 1486 1487 1488 1490 1491 1492
1453 1457 1466 1465 1467 1464 1449 1437 1436 1440 1449 1446 1448 1452 1455 1458 1462 1467 1468 1470 1471 1472 1473 1474 1475 1475 1476 1476 1476 1476 1476 1477 1477 1477 1478 1479 1479 1480 1482 1483 1484 1486 1487 1488
1456 1458 1463 1464 1463 1453 1443 1440 1441 1455 1460 1454 1453 1455 1458 1461 1464 1468 1468 1470 1471 1472 1473 1473 1473 1473 1473 1473 1473 1473 1473 1473 1473 1474 1474 1475 1475 1475 1476 1478 1480 1480 1482 1483
1452 1455 1458 1458 1462 1461 1449 1446 1452 1459 1457 1457 1458 1459 1461 1464 1465 1466 1467 1469 1470 1471 1471 1471 1471 1471 1471 1471 1470 1470 1470 1469 1470 1470 1471 1471 1471 1471 1472 1473 1475 1476 1477 1478
1448 1451 1452 1454 1458 1456 1454 1455 1458 1459 1460 1460 1459 1461 1462 1463 1465 1466 1466 1467 1468 1469 1469 1469 1469 1468 1468 1468 1468 1467 1466 1466 1465 1466 1466 1467 1467 1467 1467 1468 1470 1471 1472 1474
1447 1449 1451 1455 1455 1455 1457 1458 1459 1460 1461 1461 1461 1461 1462 1463 1464 1464 1465 1466 1467 1467 1467 1467 1467 1466 1465 1465 1464 1464 1463 1462 1462 1462 1462 1463 1463 1463 1463 1464 1465 1466 1467 1468
1453 1453 1453 1454 1455 1456 1457 1460 1461 1461 1461 1461 1461 1461 1462 1462 1463 1464 1464 1464 1465 1465 1465 1465 1464 1463 1462 1462 1461 1460 1460 1460 1459 1459 1459 1459 1459 1459 1459 1460 1461 1461 1462 1464
1455 1456 1457 1456 1458 1459 1459 1460 1461 1461 1461 1461 1461 1461 1461 1462 1462 1463 1462 1462 1462 1462 1462 1461 1461 1460 1459 1458 1457 1457 1456 1456 1456 1455 1456 1455 1456 1456 1456 1456 1456 1457 1459 1460